Regional Weather Roundup
Issued by NWS

Home | Current Version | Previous Version | Text Only | Print | Product List | Glossary On
Versions: 1 2 3 4 5 6 7 8 9 10 11 12 13 14 15 16 17 18 19 20 21 22 23 24 25 26 27 28 29 30 31 32 33 34 35 36 37 38 39 40 41 42 43 44 45 46 47 48 49 50
000
ASUS43 KMKX 252111
RWRWI

WISCONSIN REGIONAL WEATHER ROUNDUP
NATIONAL WEATHER SERVICE MILWAUKEE/SULLIVAN WI
400 PM CDT MON SEP 25 2017

NOTE: "FAIR" INDICATES FEW OR NO CLOUDS BELOW 12,000 FEET WITH NO
SIGNIFICANT WEATHER AND/OR OBSTRUCTIONS TO VISIBILITY.

WIZ001-002-006>008-014>016-023>028-252200-
NORTHWEST WISCONSIN

CITY           SKY/WX    TMP DP  RH WIND       PRES   REMARKS
SUPERIOR ARPT  CLOUDY    59  55  87 N5        29.99F
ASHLAND        HVY RAIN  60  59  96 N9        29.97F FOG
HAYWARD        HVY RAIN  60  58  92 VRB5      29.97S VSB 3/4
SIREN          CLOUDY    59  56  92 N7        29.98F
CUMBERLAND     LGT RAIN  61  57  88 N10       29.96S
RICE LAKE      CLOUDY    64  62  92 N7        29.96R
CHETEK         LGT RAIN  65  65  97 N8        29.93R
LADYSMITH      TSTM      74  67  80 NW12      29.92R
EAU CLAIRE     TSTM      68  65  90 NW9       29.91R VSB 1
MENOMONIE      CLOUDY    71  65  81 NW9       29.92R
NEW RICHMOND   CLOUDY    62  59  91 NW12      29.96F
OSCEOLA        CLOUDY    60  60 100 N10       29.99F
$$

WIZ003>005-009-010-017-018-252200-
NORTH CENTRAL WISCONSIN

CITY           SKY/WX    TMP DP  RH WIND       PRES   REMARKS
MANITOWISH WTR NOT AVBL
ARBOR VITAE    TSTM      77  70  78 W13       29.93S
WOODRUFF       TSTM      77  70  78 W13       29.93S
RHINELANDER    MOSUNNY   83  62  49 S12       29.92F HX  84
EAGLE RIVER    MOSUNNY   83  58  43 CALM      29.92F HX  82
LAND O LAKES   PTSUNNY   80  64  58 CALM      29.95F HX  81
PHILLIPS       PTSUNNY   77  65  67 SE7       29.91S
TOMAHAWK       MOSUNNY   81  62  52 S5        29.91F HX  82
MEDFORD        PTSUNNY   81  64  57 S9        29.90F HX  82
MERRILL        MOSUNNY   84  64  50 SW5       29.91F HX  86
$$

WIZ029-030-035-036-043>047-252200-
CENTRAL WISCONSIN

CITY           SKY/WX    TMP DP  RH WIND       PRES   REMARKS
WAUSAU         MOSUNNY   86  61  42 S13       29.88F HX  86
MOSINEE        MOSUNNY   84  63  48 S12       29.92F HX  85
MARSHFIELD     PTSUNNY   81  63  54 S10       29.90F HX  82
STEVENS POINT  MOSUNNY   84  62  48 S8        29.91F HX  84
WAUPACA        MOSUNNY   89  61  38 S6        29.91S HX  89
WAUTOMA        PTSUNNY   86  63  45 S5        29.90F HX  87
WISC RAPIDS    MOSUNNY   85  63  47 SW7       29.91F HX  86
CAMP DOUGLAS   PTSUNNY   77  63  61 W14G24    29.93R THUNDER
$$

WIZ011>013-019>022-031-037>040-048>050-252200-
NORTHEAST WISCONSIN

CITY           SKY/WX    TMP DP  RH WIND       PRES   REMARKS
ANTIGO         MOSUNNY   84  63  49 S10       29.93F HX  85
SHAWANO        SUNNY     89  61  37 SE7       29.90F HX  89
OCONTO         SUNNY     84  65  53 E7        29.91S HX  85
STURGEON BAY   SUNNY     80  61  52 SE10G21   29.94F HX  81
GREEN BAY      SUNNY     89  61  38 S9        29.91F HX  89
MANITOWOC      SUNNY     77  66  68 SE10      29.94F
APPLETON       MOSUNNY   86  57  37 E8        29.91F HX  85
CLINTONVILLE   MOSUNNY   88  57  35 S8        29.90F HX  86
OSHKOSH        SUNNY     87  64  46 S8        29.91F HX  88
$$

WIZ032>034-041-042-053>061-252200-
SOUTHWEST WISCONSIN

CITY           SKY/WX    TMP DP  RH WIND       PRES   REMARKS
LA CROSSE      CLOUDY    70  66  87 SE8       29.91S
SPARTA         TSTM      65  64  96 S6        29.96F
VIROQUA        CLOUDY    66  65  96 NE7       29.95F
BOSCOBEL       MOSUNNY   90  60  36 SW7       29.89R HX  89
PRAIRIE DU CHI LGT RAIN  69  63  82 N7        29.90F
PLATTEVILLE    SUNNY     90  61  37 S10       29.90F HX  89
$$

WIZ056-057-062-063-064-067-068-252200-
SOUTH CENTRAL WISCONSIN

CITY           SKY/WX    TMP DP  RH WIND       PRES   REMARKS
REEDSBURG      MOSUNNY   86  65  49 CALM      29.90S HX  87
BARABOO/DELLS  PTSUNNY   86  59  39 SE3       29.91S HX  85
LONE ROCK      MOSUNNY   91  62  37 S9        29.87F HX  91
MINERAL POINT  SUNNY     90  55  31 S10       29.91F HX  88
MADISON        MOSUNNY   89  60  37 S10       29.90F HX  89
MIDDLETON      MOSUNNY   90  57  32 S12       29.90F HX  88
WATERTOWN      SUNNY     90  59  35 S6        29.90F HX  89
MONROE         SUNNY     90  54  29 S14       29.91F HX  87
JANESVILLE     MOSUNNY   91  52  25 S5        29.90F HX  89
$$

WIZ051-052-058>065-066-070>072-252200-
SOUTHEAST WISCONSIN

CITY           SKY/WX    TMP DP  RH WIND       PRES   REMARKS
MILWAUKEE      MOSUNNY   85  64  49 SE15      29.93F HX  86
WAUKESHA       PTSUNNY   90  55  31 SW9       29.94F HX  88
MILWAUKEE/TIMM PTSUNNY   84  52  32 SE10G16   29.94F HX  82
RACINE         SUNNY     83  65  54 S12       29.95F HX  85
BURLINGTON     SUNNY     88  60  39 SE10G17   29.92S HX  87
KENOSHA        SUNNY     88  59  37 SE14      29.94F HX  87
FOND DU LAC    SUNNY     88  58  36 S9        29.91F HX  87
SHEBOYGAN      MOSUNNY   83  65  54 S10       29.94F HX  85
WEST BEND        N/A     82  59  44 SE8       29.94S HX  82
JUNEAU         SUNNY     87  57  35 S8        29.92F HX  86
$$

LSZ147-162-252200-
LAKE SUPERIOR

STATION/POSITION TIME  TEMP    WIND        PRES    WAVE
                       AIR SEA DIR/SP/G            HT/PER
                 (UTC) (F)     (DEG/KT/KT) (MB)    (FT/S)
W MID LAKE BUOY  2050   58 57  300/  2/  2 1014.9S   1
DEVILS ISLAND    2100   60     310/  8/  9 1015.3F
SAXON HARBOR     2040   63     360/  8/ 10 1014.2F
$$

LMZ867-665-643>646-252200-
LAKE MICHIGAN

STATION/POSITION TIME  TEMP    WIND        PRES    WAVE
                       AIR SEA DIR/SP/G            HT/PER
                 (UTC) (F)     (DEG/KT/KT) (MB)    (FT/S)
S GREEN BAY BUOY 2100   79 73  120/  8/ 12 1012.8F
N MID LAKE BUOY  2050   70 68  190/  6/  8 1014.5F   1/ 3
NORTHPORT PIER   2040   76     170/  6/ 11 1013.2F
KEWAUNEE LAKESHO 2048   69     160/ 11/ 11 1013.2F
SHEBOYGAN LAKESH 2100   70     160/  5/  5 1013.4F
PORT WASHINGTON  2040   77     160/  2/  4 1014.6F
ATWATER BUOY     2009   66 62  220/  4/  6 1014.1F
MILWAUKEE LAKESH 2050   67     140/  9/  9   N/A
S MID LAKE BUOY  2050   74 71  130/  8/ 10 1014.1F   1
KENOSHA   LAKESH 2100   76     170/ 10/ 11 1013.2
$$

TC  - TEMPERATURE IN CELSIUS
VSB - VISIBILITY IN STATUTE MILES
WCI - WIND CHILL INDEX
HX  - HEAT INDEX




USA.gov is the U.S. government's official web portal to all federal, state and local government web resources and services.